When you browse on this site, cookies collect data to enhance your experience and personalize the content and advertising you see.
Visit our Privacy Policy to learn more. By continuing to use the site, you agree to this use of cookies and data.
  • In Österreich
  • Länderverzeichnis
  • Für 7 Tage
  • Wassertemperatur
  • Satellitenkarten
  • Wetterkarte
  • News
  • Widgets
  • user-avatar
    Anmelden

    Stündliche Wetter Mbandaka

    Heute, 19 Januar, Samstag

    Zeit Temperatur Niederschläge Wind Luftdruck Luftfeuchtigkeit
    00:00 +25°C° 0 mm 0 m/S 730 mmHg 54%
    01:00 +24°C° 0 mm 0 m/S 731 mmHg 63%
    02:00 +24°C° 0 mm 0 m/S 731 mmHg 65%
    03:00 +24°C° 0 mm 0 m/S 731 mmHg 67%
    04:00 +23°C° 0 mm 0 m/S 731 mmHg 69%
    05:00 +24°C° 0 mm 0 m/S 731 mmHg 69%
    06:00 +26°C° 0 mm 1 m/S 732 mmHg 69%
    07:00 +27°C° 0 mm 1 m/S 732 mmHg 72%
    08:00 +29°C° 0 mm 1 m/S 732 mmHg 64%
    09:00 +32°C° 0 mm 2 m/S 732 mmHg 55%
    10:00 +35°C° 0 mm 2 m/S 732 mmHg 46%
    11:00 +37°C° 0 mm 2 m/S 732 mmHg 43%
    12:00 +38°C° 0 mm 2 m/S 731 mmHg 39%
    13:00 +37°C° 0 mm 2 m/S 731 mmHg 39%
    14:00 +36°C° 0 mm 1 m/S 730 mmHg 39%
    15:00 +36°C° 0 mm 1 m/S 730 mmHg 38%
    16:00 +36°C° 0 mm 1 m/S 730 mmHg 38%
    17:00 +34°C° 0 mm 1 m/S 730 mmHg 44%
    18:00 +30°C° 0 mm 0 m/S 730 mmHg 49%
    19:00 +28°C° 0 mm 0 m/S 730 mmHg 54%
    20:00 +27°C° 0 mm 0 m/S 731 mmHg 57%
    21:00 +27°C° 0 mm 0 m/S 731 mmHg 59%
    22:00 +26°C° 0 mm 0 m/S 731 mmHg 62%
    23:00 +26°C° 0 mm 0 m/S 731 mmHg 63%

    Morgen, 20 Januar, Sonntag

    Zeit Temperatur Niederschläge Wind Luftdruck Luftfeuchtigkeit
    00:00 +25°C° 0 mm 0 m/S 731 mmHg 65%
    01:00 +25°C° 0 mm 0 m/S 731 mmHg 66%
    02:00 +24°C° 0.2 mm 0 m/S 731 mmHg 70%
    03:00 +26°C° 0.2 mm 1 m/S 731 mmHg 75%
    04:00 +25°C° 0.2 mm 1 m/S 731 mmHg 79%
    05:00 +25°C° 0.2 mm 1 m/S 732 mmHg 82%
    06:00 +25°C° 0.2 mm 1 m/S 732 mmHg 85%
    07:00 +25°C° 0.2 mm 1 m/S 732 mmHg 88%
    08:00 +28°C° 0 mm 1 m/S 732 mmHg 76%
    09:00 +31°C° 0 mm 2 m/S 733 mmHg 63%
    10:00 +35°C° 0 mm 2 m/S 733 mmHg 51%
    11:00 +37°C° 0 mm 2 m/S 732 mmHg 43%
    12:00 +39°C° 0 mm 1 m/S 731 mmHg 36%
    13:00 +42°C° 0 mm 1 m/S 731 mmHg 28%
    14:00 +40°C° 0 mm 1 m/S 730 mmHg 30%
    15:00 +39°C° 0 mm 1 m/S 729 mmHg 32%
    16:00 +35°C° 0 mm 0 m/S 729 mmHg 34%
    17:00 +35°C° 0 mm 1 m/S 729 mmHg 40%
    18:00 +33°C° 0 mm 1 m/S 729 mmHg 45%
    19:00 +31°C° 0 mm 1 m/S 729 mmHg 51%
    20:00 +30°C° 0 mm 1 m/S 730 mmHg 53%
    21:00 +29°C° 0 mm 1 m/S 731 mmHg 56%
    22:00 +29°C° 0 mm 1 m/S 731 mmHg 59%
    23:00 +28°C° 0 mm 1 m/S 731 mmHg 61%

    übermorgen, 21 Januar, Montag

    Zeit Temperatur Niederschläge Wind Luftdruck Luftfeuchtigkeit
    00:00 +28°C° 0 mm 1 m/S 731 mmHg 64%
    01:00 +27°C° 0 mm 1 m/S 731 mmHg 66%
    02:00 +27°C° 0 mm 1 m/S 731 mmHg 69%
    03:00 +26°C° 0 mm 1 m/S 731 mmHg 72%
    04:00 +26°C° 0 mm 1 m/S 731 mmHg 75%
    05:00 +26°C° 0.1 mm 1 m/S 731 mmHg 75%
    06:00 +27°C° 0.1 mm 1 m/S 732 mmHg 75%
    07:00 +27°C° 0.1 mm 1 m/S 733 mmHg 75%
    08:00 +29°C° 0.2 mm 1 m/S 733 mmHg 67%
    09:00 +32°C° 0.2 mm 2 m/S 733 mmHg 58%
    10:00 +35°C° 0.2 mm 2 m/S 733 mmHg 50%
    11:00 +36°C° 0 mm 2 m/S 732 mmHg 46%
    12:00 +37°C° 0 mm 2 m/S 732 mmHg 42%
    13:00 +39°C° 0 mm 2 m/S 731 mmHg 37%
    14:00 +37°C° 0 mm 1 m/S 730 mmHg 38%
    15:00 +37°C° 0 mm 1 m/S 729 mmHg 39%
    16:00 +36°C° 0 mm 1 m/S 729 mmHg 40%
    17:00 +34°C° 0 mm 1 m/S 729 mmHg 47%
    18:00 +32°C° 0 mm 1 m/S 729 mmHg 53%
    19:00 +30°C° 0 mm 1 m/S 729 mmHg 59%
    20:00 +29°C° 0.1 mm 1 m/S 730 mmHg 63%
    21:00 +28°C° 0.1 mm 1 m/S 731 mmHg 66%
    22:00 +26°C° 0.1 mm 0 m/S 731 mmHg 69%
    23:00 +25°C° 0.6 mm 0 m/S 731 mmHg 77%

    22 Januar, Dienstag

    Zeit Temperatur Niederschläge Wind Luftdruck Luftfeuchtigkeit
    00:00 +24°C° 0.6 mm 0 m/S 731 mmHg 84%
    01:00 +25°C° 0.6 mm 1 m/S 730 mmHg 92%
    02:00 +23°C° 0.2 mm 0 m/S 730 mmHg 91%
    03:00 +24°C° 0.2 mm 0 m/S 730 mmHg 89%
    04:00 +24°C° 0.2 mm 0 m/S 730 mmHg 88%
    05:00 +26°C° 0 mm 1 m/S 730 mmHg 87%
    06:00 +26°C° 0 mm 1 m/S 731 mmHg 87%
    07:00 +26°C° 0 mm 1 m/S 731 mmHg 86%
    08:00 +26°C° 0 mm 1 m/S 731 mmHg 81%
    09:00 +27°C° 0 mm 1 m/S 731 mmHg 77%
    10:00 +28°C° 0 mm 1 m/S 731 mmHg 73%
    11:00 +31°C° 0 mm 1 m/S 731 mmHg 60%
    12:00 +35°C° 0 mm 2 m/S 730 mmHg 48%
    13:00 +38°C° 0 mm 2 m/S 729 mmHg 35%
    14:00 +38°C° 0 mm 2 m/S 728 mmHg 33%
    15:00 +39°C° 0 mm 1 m/S 728 mmHg 31%
    16:00 +39°C° 0 mm 1 m/S 727 mmHg 29%
    17:00 +35°C° 0 mm 1 m/S 727 mmHg 36%
    18:00 +32°C° 0 mm 1 m/S 728 mmHg 43%
    19:00 +28°C° 0 mm 0 m/S 728 mmHg 50%
    20:00 +28°C° 0 mm 0 m/S 729 mmHg 51%
    21:00 +27°C° 0 mm 0 m/S 730 mmHg 51%
    22:00 +29°C° 0 mm 1 m/S 730 mmHg 52%
    23:00 +29°C° 0.1 mm 1 m/S 730 mmHg 57%

    23 Januar, Mittwoch

    Zeit Temperatur Niederschläge Wind Luftdruck Luftfeuchtigkeit
    00:00 +28°C° 0.1 mm 1 m/S 730 mmHg 63%
    01:00 +27°C° 0.1 mm 1 m/S 730 mmHg 68%
    02:00 +26°C° 1.5 mm 1 m/S 730 mmHg 77%
    03:00 +25°C° 1.5 mm 1 m/S 730 mmHg 86%
    04:00 +24°C° 1.5 mm 1 m/S 730 mmHg 95%
    05:00 +25°C° 0 mm 1 m/S 730 mmHg 92%
    06:00 +25°C° 0 mm 2 m/S 731 mmHg 90%
    07:00 +26°C° 0 mm 2 m/S 731 mmHg 88%
    08:00 +28°C° 0 mm 2 m/S 732 mmHg 78%
    09:00 +30°C° 0 mm 3 m/S 732 mmHg 68%
    10:00 +33°C° 0 mm 3 m/S 733 mmHg 58%
    11:00 +34°C° 0 mm 3 m/S 732 mmHg 53%
    12:00 +35°C° 0 mm 3 m/S 731 mmHg 49%
    13:00 +36°C° 0 mm 3 m/S 730 mmHg 44%
    14:00 +36°C° 0 mm 3 m/S 729 mmHg 45%
    15:00 +36°C° 0 mm 3 m/S 729 mmHg 46%
    16:00 +35°C° 0 mm 2 m/S 728 mmHg 46%
    17:00 +32°C° 0 mm 2 m/S 729 mmHg 53%
    18:00 +31°C° 0 mm 2 m/S 729 mmHg 59%
    19:00 +29°C° 0 mm 2 m/S 729 mmHg 66%
    20:00 +28°C° 0 mm 1 m/S 730 mmHg 70%
    21:00 +27°C° 0 mm 1 m/S 730 mmHg 74%
    22:00 +26°C° 0 mm 1 m/S 730 mmHg 78%
    23:00 +26°C° 0.3 mm 1 m/S 730 mmHg 81%

    24 Januar, Donnerstag

    Zeit Temperatur Niederschläge Wind Luftdruck Luftfeuchtigkeit
    00:00 +25°C° 0.3 mm 1 m/S 730 mmHg 84%
    01:00 +23°C° 0.3 mm 0 m/S 730 mmHg 87%
    02:00 +22°C° 0.5 mm 0 m/S 730 mmHg 89%
    03:00 +22°C° 0.5 mm 0 m/S 730 mmHg 92%
    04:00 +22°C° 0.5 mm 0 m/S 730 mmHg 94%
    05:00 +24°C° 0 mm 1 m/S 730 mmHg 93%
    06:00 +25°C° 0 mm 1 m/S 730 mmHg 91%
    07:00 +25°C° 0 mm 1 m/S 731 mmHg 90%
    08:00 +28°C° 0 mm 1 m/S 731 mmHg 77%
    09:00 +30°C° 0 mm 1 m/S 731 mmHg 64%
    10:00 +34°C° 0 mm 2 m/S 731 mmHg 51%
    11:00 +36°C° 0 mm 2 m/S 730 mmHg 45%
    12:00 +38°C° 0 mm 2 m/S 729 mmHg 38%
    13:00 +39°C° 0 mm 2 m/S 728 mmHg 32%
    14:00 +40°C° 0 mm 1 m/S 728 mmHg 31%
    15:00 +40°C° 0 mm 1 m/S 727 mmHg 30%
    16:00 +37°C° 0 mm 0 m/S 727 mmHg 29%
    17:00 +34°C° 0 mm 0 m/S 727 mmHg 36%
    18:00 +32°C° 0 mm 0 m/S 728 mmHg 42%
    19:00 +29°C° 0 mm 0 m/S 728 mmHg 48%
    20:00 +31°C° 0.1 mm 1 m/S 729 mmHg 51%
    21:00 +30°C° 0.1 mm 1 m/S 729 mmHg 54%
    22:00 +29°C° 0.1 mm 1 m/S 730 mmHg 57%
    23:00 +28°C° 0.3 mm 1 m/S 729 mmHg 65%
    Mehr zeigen